[[{"header":{"parameterUnit":"m.s-1","parameterCategory":2,"la1":30.2991,"la2":30.254,"lo1":-89.0895,"lo2":-89.0444,"dy":0.0017,"dx":0.0017,"nx":28,"ny":28,"refTime":"2025-06-22T21:00:00:Z","depth":"0","parameterNumber":2,"parameterNumberName":"U-component_of_CURRENTS"},"data":[0,0,0,0,0,0,0,0,0,0,0,0,0,0,0,0,0,0,0,0,0,0,0,0,0,0,0,0,0,0,0,0,0,0,0,0,0,0,0,0,0,0,0,0,0,0,0,0,0,0,0,0,0,0,0,0,0,0,-0.2857,-0.2858,0,-0.2892,-0.2892,-0.2892,-0.2864,-0.2863,-0.2863,-0.2862,-0.2877,-0.2878,-0.2879,0,0,0,0,0,0,0,0,0,0,0,0,0,-0.2767,-0.2769,-0.2857,-0.2858,-0.2859,-0.2892,-0.2892,-0.2892,-0.2865,-0.2863,-0.2862,-0.2861,-0.2876,-0.2878,-0.2879,0,0,0,0,0,0,0,0,0,0,0,0,0,-0.2802,-0.2769,-0.2857,-0.2851,-0.2851,-0.2892,-0.2892,-0.2892,-0.2865,-0.2863,-0.2862,-0.2861,-0.2876,-0.2878,-0.2879,-0.2919,0,0,-0.2885,-0.2886,0,0,0,0,0,0,0,0,-0.28,-0.2805,-0.2851,-0.2851,-0.2852,-0.2875,-0.2866,-0.2901,-0.2865,-0.2857,-0.2862,-0.286,-0.2877,-0.2879,-0.2885,-0.292,-0.292,-0.2885,-0.2887,-0.2887,-0.2888,0,0,0,0,0,0,0,-0.2797,-0.2803,-0.2868,-0.2852,-0.2852,-0.2846,-0.2849,-0.2872,-0.2872,-0.2857,-0.2856,-0.2865,-0.2876,-0.2883,-0.2885,-0.2921,-0.2885,-0.2887,-0.2888,-0.2889,-0.2938,-0.2938,0,0,0,0,0,0,-0.2801,-0.2801,-0.2867,-0.287,-0.2825,-0.2849,-0.2852,-0.2866,-0.2872,-0.2872,-0.2866,-0.2863,-0.288,-0.2883,-0.2885,-0.2908,-0.2887,-0.2889,-0.289,-0.2938,-0.2938,-0.2938,0,0,0,0,0,0,-0.2799,-0.2806,-0.2866,-0.2838,-0.2845,-0.2852,-0.2868,-0.2868,-0.2869,-0.2879,-0.2878,-0.2866,-0.2879,-0.2883,-0.2895,-0.2909,-0.289,-0.2892,-0.2938,-0.2938,-0.2938,-0.2968,0,0,0,0,0,0,-0.2796,-0.2806,-0.2812,-0.2838,-0.2847,-0.2891,-0.287,-0.287,-0.2878,-0.2874,-0.288,-0.288,-0.2879,-0.2893,-0.2897,-0.2911,-0.2893,-0.2938,-0.2938,-0.2938,-0.2967,-0.297,-0.2972,0,0,0,0,0,-0.2793,-0.2811,-0.2813,-0.282,-0.2858,-0.2892,-0.2896,-0.2894,-0.2879,-0.2887,-0.2881,-0.2879,-0.2897,-0.2895,-0.29,-0.2915,-0.2937,-0.2938,-0.2938,-0.2966,-0.2969,-0.2972,0,0,0,0,0,0,-0.2772,-0.2811,-0.2813,-0.284,-0.2865,-0.2888,-0.2896,-0.2897,-0.2901,-0.2892,-0.289,-0.2891,-0.2907,-0.2906,-0.2903,-0.2927,-0.2914,-0.2916,-0.2934,-0.2937,-0.2939,-0.2941,-0.2895,0,0,0,0,0,-0.2774,-0.2794,-0.2831,-0.2849,-0.2863,-0.2879,-0.289,-0.2895,-0.2906,-0.2905,-0.2908,-0.2907,-0.2916,-0.2921,-0.293,-0.2952,-0.2939,-0.296,-0.2962,-0.2964,-0.2968,-0.2963,-0.2966,-0.294,-0.294,-0.294,0,0,-0.2768,-0.2793,-0.2802,-0.2845,-0.286,-0.2891,-0.2881,-0.2905,-0.2924,-0.2909,-0.2924,-0.2922,-0.2924,-0.2941,-0.2948,-0.294,-0.2961,-0.2965,-0.2967,-0.297,-0.2964,-0.2967,-0.2969,-0.294,-0.294,-0.294,0,0,-0.2772,-0.2792,-0.2812,-0.2842,-0.2877,-0.2895,-0.2903,-0.2932,-0.2934,-0.2957,-0.2945,-0.2945,-0.2965,-0.2964,-0.2966,-0.2988,-0.2976,-0.2991,-0.3007,-0.3002,-0.3005,-0.3006,-0.298,-0.2979,-0.299,-0.299,-0.299,0,-0.276,-0.2796,-0.2821,-0.2857,-0.2879,-0.2898,-0.2927,-0.2946,-0.297,-0.2978,-0.2963,-0.298,-0.2975,-0.2996,-0.2994,-0.2995,-0.2983,-0.2999,-0.3006,-0.3008,-0.3009,-0.2981,-0.298,-0.2991,-0.2991,-0.2991,-0.2991,0,-0.2786,-0.2816,-0.2832,-0.288,-0.2911,-0.2939,-0.2977,-0.2997,-0.2999,-0.3012,-0.303,-0.3022,-0.3027,-0.3026,-0.3016,-0.3029,-0.3013,-0.3012,-0.3001,-0.3014,-0.2983,-0.2981,-0.2994,-0.2993,-0.2993,-0.2992,0,0,-0.2747,-0.2831,-0.2834,-0.2861,-0.2925,-0.295,-0.2994,-0.3033,-0.3051,-0.3066,-0.308,-0.3086,-0.3074,-0.3075,-0.3064,-0.3056,-0.3043,-0.3038,-0.3037,-0.3014,-0.3019,-0.2948,-0.2939,-0.3048,-0.3048,-0.3049,-0.2988,0,-0.2751,-0.2812,-0.2858,-0.2907,-0.2939,-0.2985,-0.3023,-0.3063,-0.3082,-0.3102,-0.3101,-0.3108,-0.3097,-0.3089,-0.3086,-0.3057,-0.3043,-0.3059,-0.3007,-0.3005,-0.2944,-0.2936,-0.2833,-0.2765,-0.2986,-0.2986,-0.2986,0,-0.2751,-0.2795,-0.2845,-0.292,-0.2938,-0.2971,-0.3026,-0.3065,-0.311,-0.3124,-0.3141,-0.3141,-0.3137,-0.3117,-0.3087,-0.3099,-0.3061,-0.3035,-0.3032,-0.2957,-0.2932,-0.2791,-0.2754,-0.2733,-0.2983,-0.2983,-0.2983,0,-0.2693,-0.2779,-0.2812,-0.2841,-0.2933,-0.2957,-0.2999,-0.3059,-0.309,-0.3129,-0.3144,-0.3155,-0.3144,-0.312,-0.3072,-0.3078,-0.3027,-0.3027,-0.2928,-0.2922,-0.2817,-0.2802,-0.2756,-0.3001,-0.3001,-0.3001,-0.3001,0,-0.2672,-0.2696,-0.2786,-0.2806,-0.2842,-0.292,-0.2956,-0.3005,-0.3067,-0.3094,-0.3139,-0.3152,-0.3145,-0.3121,-0.3078,-0.2991,-0.303,-0.2924,-0.2903,-0.2822,-0.2808,-0.2773,-0.2797,-0.2999,-0.2999,-0.3,-0.3,0,-0.2592,-0.2657,-0.2696,-0.2788,-0.2813,-0.2831,-0.2924,-0.2949,-0.3027,-0.3061,-0.3073,-0.3136,-0.3107,-0.3086,-0.3032,-0.298,-0.2861,-0.2874,-0.2767,-0.2735,-0.2613,-0.2643,-0.2578,-0.2503,-0.2747,-0.2745,-0.2743,0,-0.2552,-0.2564,-0.2652,-0.2667,-0.2702,-0.2752,-0.2784,-0.2896,-0.2933,-0.3043,-0.3047,-0.3063,-0.304,-0.2951,-0.2869,-0.2771,-0.2775,-0.2623,-0.2615,-0.2584,-0.2603,-0.2629,-0.2572,-0.2482,-0.2478,-0.2475,-0.2473,0,-0.246,-0.2489,-0.252,-0.2556,-0.2588,-0.2632,-0.2694,-0.2724,-0.2851,-0.2889,-0.2928,-0.2923,-0.2883,-0.2754,-0.2655,-0.2582,-0.2562,-0.2555,-0.2555,-0.2414,-0.2409,-0.2332,-0.2542,-0.2445,-0.2448,-0.245,-0.2451,-0.2452,-0.2364,-0.2359,-0.2396,-0.2415,-0.2452,-0.2471,-0.2458,-0.2547,-0.258,-0.2619,-0.2732,-0.2704,-0.2668,-0.2513,-0.2437,-0.2292,-0.2355,-0.2228,-0.2271,-0.2303,-0.2218,-0.2357,-0.2224,-0.2226,-0.2227,-0.2228,-0.2229,0,-0.2229,-0.2238,-0.2252,-0.2268,-0.2242,-0.2316,-0.2357,-0.2321,-0.2302,-0.2407,-0.2419,-0.2432,-0.2305,-0.2279,-0.2158,-0.205,-0.1993,-0.2003,-0.2023,-0.1979,-0.2113,-0.2088,-0.1881,-0.1881,-0.1881,-0.1881,-0.1881,-0.1881,-0.2158,-0.2116,-0.2127,-0.204,-0.2044,-0.196,-0.1943,-0.1922,-0.196,-0.1964,-0.2031,-0.2134,-0.2133,-0.2247,-0.2084,-0.1965,-0.1913,-0.1855,-0.1877,-0.1997,-0.2022,-0.2046,-0.2027,-0.1811,-0.1811,-0.1667,-0.1666,-0.1665]},{"header":{"parameterUnit":"m.s-1","parameterCategory":2,"la1":30.2991,"la2":30.254,"lo1":-89.0895,"lo2":-89.0444,"dy":0.0017,"dx":0.0017,"nx":28,"ny":28,"refTime":"2025-06-22T21:00:00:Z","depth":"0","parameterNumber":3,"parameterNumberName":"V-component_of_CURRENTS"},"data":[0,0,0,0,0,0,0,0,0,0,0,0,0,0,0,0,0,0,0,0,0,0,0,0,0,0,0,0,0,0,0,0,0,0,0,0,0,0,0,0,0,0,0,0,0,0,0,0,0,0,0,0,0,0,0,0,0,0,-0.0293,-0.0292,0,-0.0215,-0.0214,-0.0213,-0.015,-0.0149,-0.0149,-0.0148,-0.0018,-0.0016,-0.0013,0,0,0,0,0,0,0,0,0,0,0,0,0,-0.0337,-0.0336,-0.0293,-0.0292,-0.0291,-0.0215,-0.0214,-0.0213,-0.015,-0.0149,-0.0149,-0.0148,-0.0019,-0.0016,-0.0012,0,0,0,0,0,0,0,0,0,0,0,0,0,-0.0293,-0.0336,-0.0293,-0.0251,-0.0247,-0.0215,-0.0214,-0.0213,-0.015,-0.0149,-0.0148,-0.0148,-0.0021,-0.0016,-0.0012,-0.0001,0,0,0.0002,0.0003,0,0,0,0,0,0,0,0,-0.0296,-0.0292,-0.0258,-0.0254,-0.0249,-0.0192,-0.0182,-0.014,-0.015,-0.0186,-0.0148,-0.0147,-0.0073,-0.0064,-0.0051,0.0005,0.001,0.0002,0.0005,0.0007,0.0008,0,0,0,0,0,0,0,-0.0299,-0.0294,-0.0261,-0.0258,-0.0252,-0.0219,-0.0213,-0.0173,-0.0133,-0.0183,-0.0178,-0.0171,-0.007,-0.0055,-0.0047,0.0012,0.0002,0.0006,0.0008,0.001,0.0094,0.0093,0,0,0,0,0,0,-0.0314,-0.0298,-0.0263,-0.0259,-0.0272,-0.022,-0.0212,-0.021,-0.0135,-0.0123,-0.0172,-0.0169,-0.0063,-0.0052,-0.0042,-0.0021,0.0006,0.0011,0.0013,0.0094,0.0093,0.0093,0,0,0,0,0,0,-0.0316,-0.0312,-0.0267,-0.0277,-0.0269,-0.022,-0.0219,-0.0209,-0.0193,-0.0127,-0.0114,-0.0165,-0.0062,-0.0048,-0.0013,-0.0015,0.0013,0.0017,0.0094,0.0094,0.0093,0.0019,0,0,0,0,0,0,-0.0318,-0.0314,-0.0319,-0.0278,-0.0269,-0.0258,-0.0219,-0.0209,-0.0191,-0.0185,-0.0117,-0.0104,-0.006,-0.002,-0.0009,-0.0009,0.002,0.0095,0.0094,0.0093,0.0022,0.0016,0.0011,0,0,0,0,0,-0.0319,-0.0336,-0.032,-0.0316,-0.0278,-0.0258,-0.0251,-0.0212,-0.0191,-0.0192,-0.0146,-0.0106,-0.0017,-0.0017,-0.0004,-0.0002,0.0095,0.0094,0.0093,0.0025,0.0017,0.0011,0,0,0,0,0,0,-0.0358,-0.033,-0.0312,-0.0318,-0.0293,-0.0248,-0.0246,-0.0219,-0.0183,-0.0176,-0.0112,-0.0097,-0.0066,-0.0028,-0.003,0.0019,0.0046,0.0048,-0.0011,-0.0017,-0.0023,-0.0032,0.0024,0,0,0,0,0,-0.0371,-0.0374,-0.0339,-0.0344,-0.0335,-0.0291,-0.0278,-0.0253,-0.0216,-0.0199,-0.0152,-0.0102,-0.0061,-0.0035,0.0005,0.003,0.0082,0.004,0.0034,0.0029,0.0031,0.0099,0.01,0.009,0.009,0.009,0,0,-0.0387,-0.0372,-0.0372,-0.0352,-0.0328,-0.0328,-0.0281,-0.0269,-0.0263,-0.0191,-0.0169,-0.0122,-0.006,-0.0031,-0.0014,0.0002,0.0058,0.0028,0.0023,0.0028,0.0098,0.0099,0.0101,0.0089,0.0089,0.0089,0,0,-0.0428,-0.0408,-0.0426,-0.0411,-0.0386,-0.0357,-0.0358,-0.0318,-0.0293,-0.0269,-0.0215,-0.017,-0.0113,-0.0064,-0.0033,-0.0046,0.0023,-0.0035,-0.0065,0.0001,0.0003,0.0005,0.0067,0.0075,-0.0035,-0.0035,-0.0035,0,-0.045,-0.0466,-0.0429,-0.0442,-0.0436,-0.0377,-0.0395,-0.0363,-0.0315,-0.0294,-0.0274,-0.0176,-0.0126,-0.0075,-0.008,-0.0057,-0.001,-0.0045,-0.0006,-0.0003,0.0001,0.0065,0.0075,-0.0038,-0.0038,-0.0038,-0.0037,0,-0.0504,-0.0515,-0.0525,-0.0521,-0.0508,-0.0514,-0.0467,-0.0447,-0.0408,-0.0368,-0.0313,-0.024,-0.0181,-0.0157,-0.0121,-0.0074,-0.0045,-0.0024,0.001,-0.0003,0.0065,0.0077,-0.0044,-0.0042,-0.0041,-0.004,0,0,-0.0558,-0.0565,-0.0567,-0.0582,-0.0551,-0.0549,-0.0533,-0.05,-0.0484,-0.0421,-0.039,-0.0312,-0.0261,-0.0222,-0.0162,-0.0101,-0.0038,-0.0059,-0.0054,0.0001,0.0108,0.0164,0.0183,-0.001,-0.0008,-0.0007,0.0145,0,-0.0613,-0.0666,-0.0644,-0.0681,-0.0702,-0.0645,-0.0635,-0.0591,-0.0536,-0.0489,-0.0391,-0.0341,-0.0288,-0.0257,-0.0188,-0.0076,-0.001,-0.0081,0.0115,0.0121,0.0171,0.0198,0.0254,0.0397,0.0157,0.0159,0.016,0,-0.0674,-0.0701,-0.0756,-0.0765,-0.0766,-0.0771,-0.0736,-0.0719,-0.0628,-0.0583,-0.0502,-0.0422,-0.0321,-0.0276,-0.0086,-0.0135,-0.0023,0.0069,0.0078,0.0166,0.02,0.0373,0.0428,0.0611,0.0179,0.0178,0.0176,0,-0.0741,-0.0776,-0.0824,-0.0829,-0.0827,-0.083,-0.0817,-0.0748,-0.0729,-0.0635,-0.0599,-0.0469,-0.0394,-0.0246,-0.0055,-0.0071,0.0167,0.0169,0.0329,0.0334,0.044,0.0452,0.0696,0.0308,0.0308,0.0307,0.0307,0,-0.0812,-0.0848,-0.0861,-0.0891,-0.0935,-0.0899,-0.0914,-0.0875,-0.0808,-0.0779,-0.0653,-0.0585,-0.0381,-0.0219,-0.006,0.0182,0.0167,0.0338,0.0384,0.0415,0.0422,0.0632,0.0693,0.0313,0.0312,0.031,0.0309,0,-0.088,-0.0889,-0.0949,-0.0967,-0.0973,-0.1002,-0.0992,-0.0992,-0.0916,-0.087,-0.0842,-0.0661,-0.0442,-0.022,0.0044,0.0183,0.0526,0.0488,0.051,0.0555,0.0848,0.0901,0.1187,0.1296,0.0677,0.068,0.0682,0,-0.0922,-0.096,-0.1014,-0.1053,-0.1066,-0.1096,-0.1111,-0.1056,-0.1045,-0.0907,-0.0885,-0.0664,-0.0486,-0.0071,0.0222,0.0531,0.0664,0.0748,0.0727,0.0894,0.0987,0.1023,0.1095,0.0841,0.0844,0.0846,0.0848,0,-0.0996,-0.1012,-0.106,-0.1144,-0.1183,-0.122,-0.123,-0.1237,-0.1154,-0.1075,-0.0926,-0.0766,-0.0346,0.0043,0.0449,0.0635,0.0893,0.0809,0.0992,0.115,0.1198,0.1314,0.0703,0.0871,0.0869,0.0867,0.0866,0.0865,-0.1038,-0.1092,-0.1154,-0.1228,-0.1279,-0.1322,-0.1338,-0.1316,-0.1269,-0.1124,-0.0967,-0.0674,-0.0113,0.048,0.0695,0.1166,0.1108,0.1297,0.1352,0.1377,0.1479,0.0912,0.1118,0.1117,0.1117,0.1116,0.1115,0,-0.1088,-0.1146,-0.1231,-0.1313,-0.1375,-0.1377,-0.1396,-0.1367,-0.1296,-0.1112,-0.0919,-0.0285,0.0273,0.0782,0.1436,0.1689,0.1742,0.1816,0.1893,0.1943,0.1469,0.1471,0.1752,0.1752,0.1752,0.1752,0.1751,0.1751,-0.1115,-0.1204,-0.125,-0.1365,-0.1418,-0.1452,-0.1452,-0.1376,-0.1237,-0.0885,-0.0526,-0.0232,0.0507,0.1536,0.2132,0.219,0.24,0.2395,0.2493,0.217,0.2125,0.2083,0.2104,0.2512,0.2513,0.2964,0.2968,0.2972]}],[{"header":{"parameterUnit":"m.s-1","parameterCategory":2,"la1":30.2991,"la2":30.254,"lo1":-89.0895,"lo2":-89.0444,"dy":0.0017,"dx":0.0017,"nx":28,"ny":28,"refTime":"2025-06-22T21:00:00:Z","depth":"2","parameterNumber":2,"parameterNumberName":"U-component_of_CURRENTS"},"data":[0,0,0,0,0,0,0,0,0,0,0,0,0,0,0,0,0,0,0,0,0,0,0,0,0,0,0,0,0,0,0,0,0,0,0,0,0,0,0,0,0,0,0,0,0,0,0,0,0,0,0,0,0,0,0,0,0,0,-0.2543,-0.2543,0,-0.2587,-0.2588,-0.2588,-0.2573,-0.2573,-0.2572,-0.2571,-0.26,-0.2601,-0.2602,0,0,0,0,0,0,0,0,0,0,0,0,0,-0.245,-0.2452,-0.2543,-0.2544,-0.2544,-0.2587,-0.2588,-0.2588,-0.2574,-0.2573,-0.2572,-0.2571,-0.2599,-0.2601,-0.2603,0,0,0,0,0,0,0,0,0,0,0,0,0,-0.249,-0.2452,-0.2543,-0.2544,-0.2545,-0.2587,-0.2588,-0.2588,-0.2574,-0.2573,-0.2571,-0.257,-0.2599,-0.2601,-0.2603,-0.2638,0,0,-0.2609,-0.261,0,0,0,0,0,0,0,0,-0.2488,-0.2493,-0.2543,-0.2544,-0.2545,-0.2576,-0.2566,-0.2605,-0.2574,-0.256,-0.2571,-0.257,-0.2593,-0.2595,-0.2603,-0.264,-0.2641,-0.261,-0.2611,-0.2612,-0.2613,0,0,0,0,0,0,0,-0.2485,-0.2491,-0.2558,-0.2544,-0.2545,-0.2544,-0.2548,-0.2573,-0.258,-0.2561,-0.2561,-0.257,-0.2592,-0.2601,-0.2603,-0.2641,-0.261,-0.2612,-0.2613,-0.2614,-0.2676,-0.2676,0,0,0,0,0,0,-0.2486,-0.2489,-0.2557,-0.256,-0.2516,-0.2547,-0.2552,-0.2565,-0.258,-0.2582,-0.2571,-0.2569,-0.2598,-0.2601,-0.2604,-0.2636,-0.2612,-0.2614,-0.2615,-0.2676,-0.2676,-0.2676,0,0,0,0,0,0,-0.2484,-0.2491,-0.2555,-0.2526,-0.2535,-0.255,-0.2565,-0.2567,-0.2574,-0.2588,-0.2589,-0.2577,-0.2597,-0.2601,-0.2622,-0.2637,-0.2615,-0.2617,-0.2675,-0.2676,-0.2676,-0.2707,0,0,0,0,0,0,-0.2481,-0.2491,-0.2498,-0.2527,-0.2537,-0.2584,-0.2567,-0.2568,-0.2583,-0.2581,-0.2594,-0.2595,-0.2596,-0.2619,-0.2624,-0.264,-0.2619,-0.2675,-0.2675,-0.2676,-0.2706,-0.2709,-0.2711,0,0,0,0,0,-0.2477,-0.2495,-0.2499,-0.2507,-0.2548,-0.2585,-0.259,-0.2595,-0.2584,-0.2595,-0.2596,-0.2595,-0.2626,-0.2621,-0.2627,-0.2644,-0.2674,-0.2675,-0.2676,-0.2704,-0.2708,-0.2711,0,0,0,0,0,0,-0.2458,-0.2497,-0.2501,-0.2529,-0.2556,-0.2583,-0.2594,-0.26,-0.2611,-0.2606,-0.2608,-0.261,-0.2634,-0.2634,-0.2628,-0.2661,-0.2647,-0.2649,-0.2667,-0.267,-0.2673,-0.2675,-0.262,0,0,0,0,0,-0.246,-0.248,-0.2518,-0.2537,-0.2553,-0.2574,-0.2588,-0.2597,-0.2613,-0.2616,-0.2625,-0.2631,-0.2644,-0.2652,-0.2665,-0.2691,-0.2678,-0.2702,-0.2704,-0.2707,-0.2711,-0.2707,-0.271,-0.2679,-0.2679,-0.2679,0,0,-0.2455,-0.248,-0.249,-0.2534,-0.2552,-0.2585,-0.2579,-0.2607,-0.263,-0.262,-0.2645,-0.2648,-0.2653,-0.2676,-0.2686,-0.2678,-0.2706,-0.2708,-0.271,-0.2713,-0.2709,-0.2712,-0.2714,-0.268,-0.2679,-0.2679,0,0,-0.2461,-0.2482,-0.2503,-0.2533,-0.2572,-0.2592,-0.2602,-0.2636,-0.2644,-0.2676,-0.2667,-0.2675,-0.2703,-0.2704,-0.2709,-0.2736,-0.2723,-0.2741,-0.2758,-0.2755,-0.2757,-0.2759,-0.2734,-0.2734,-0.274,-0.274,-0.274,0,-0.2453,-0.2488,-0.2514,-0.2549,-0.2573,-0.2597,-0.2628,-0.2651,-0.2685,-0.2695,-0.2685,-0.2715,-0.2715,-0.274,-0.2741,-0.2744,-0.2733,-0.2747,-0.2759,-0.2761,-0.2762,-0.2736,-0.2736,-0.2741,-0.2741,-0.2741,-0.2741,0,-0.248,-0.2511,-0.2528,-0.2577,-0.2609,-0.264,-0.2681,-0.2707,-0.2717,-0.2734,-0.2761,-0.276,-0.2772,-0.2774,-0.2766,-0.2783,-0.2767,-0.2765,-0.2751,-0.2767,-0.2739,-0.2737,-0.2744,-0.2743,-0.2743,-0.2742,0,0,-0.2446,-0.2529,-0.2533,-0.256,-0.2626,-0.2652,-0.2701,-0.2745,-0.2767,-0.2793,-0.2813,-0.2828,-0.2821,-0.2824,-0.2817,-0.2812,-0.2803,-0.2794,-0.2793,-0.277,-0.2781,-0.2704,-0.2695,-0.2806,-0.2806,-0.2807,-0.2751,0,-0.2453,-0.2515,-0.2559,-0.2612,-0.2644,-0.2692,-0.2734,-0.2778,-0.2803,-0.283,-0.2836,-0.2852,-0.2844,-0.2841,-0.284,-0.2815,-0.2803,-0.2817,-0.2768,-0.2766,-0.2697,-0.2693,-0.2504,-0.2434,-0.275,-0.275,-0.275,0,-0.2456,-0.25,-0.2553,-0.2628,-0.2646,-0.2682,-0.2742,-0.2784,-0.2836,-0.2855,-0.2879,-0.2884,-0.2887,-0.287,-0.2846,-0.2857,-0.2821,-0.2798,-0.2796,-0.2714,-0.2687,-0.2471,-0.242,-0.2747,-0.2747,-0.2748,-0.2748,0,-0.2404,-0.249,-0.2527,-0.2555,-0.2647,-0.2674,-0.2717,-0.2782,-0.2814,-0.2862,-0.2881,-0.2899,-0.2895,-0.2874,-0.2832,-0.2838,-0.2793,-0.2792,-0.2691,-0.2685,-0.2509,-0.2486,-0.2771,-0.2771,-0.2771,-0.2771,-0.2771,0,-0.2387,-0.2414,-0.2504,-0.2525,-0.2564,-0.2641,-0.2682,-0.2733,-0.2798,-0.2826,-0.2878,-0.2893,-0.2897,-0.2877,-0.2837,-0.2753,-0.2795,-0.2688,-0.2667,-0.2512,-0.2492,-0.2756,-0.2755,-0.2769,-0.2769,-0.277,-0.277,0,-0.2314,-0.238,-0.2421,-0.2513,-0.2539,-0.2561,-0.2653,-0.2679,-0.276,-0.2797,-0.2811,-0.2877,-0.2852,-0.284,-0.2793,-0.2742,-0.2679,-0.2638,-0.2447,-0.2404,-0.2571,-0.2572,-0.2516,-0.2513,-0.251,-0.2508,-0.2506,0,-0.228,-0.2295,-0.2383,-0.2399,-0.2436,-0.249,-0.2522,-0.2631,-0.2666,-0.2775,-0.2778,-0.2801,-0.2772,-0.2691,-0.2611,-0.2516,-0.2601,-0.2295,-0.2275,-0.2561,-0.2546,-0.2551,-0.2556,-0.2045,-0.204,-0.2036,-0.2032,0,-0.2197,-0.2228,-0.226,-0.2298,-0.2332,-0.2375,-0.2435,-0.246,-0.2582,-0.2616,-0.2648,-0.2637,-0.2597,-0.2423,-0.233,-0.2253,-0.2298,-0.2201,-0.2536,-0.215,-0.2115,-0.2102,-0.2122,-0.1992,-0.1996,-0.1999,-0.2001,-0.2003,-0.2112,-0.211,-0.2148,-0.2168,-0.2206,-0.2221,-0.2206,-0.2283,-0.2306,-0.2327,-0.2435,-0.2362,-0.2346,-0.2104,-0.1986,-0.1897,-0.2053,-0.1955,-0.1969,-0.1988,-0.1954,-0.1918,-0.175,-0.1752,-0.1754,-0.1756,-0.1758,0,-0.1991,-0.2,-0.2014,-0.2032,-0.2009,-0.208,-0.211,-0.2066,-0.203,-0.209,-0.2087,-0.1884,-0.1771,-0.176,-0.1564,-0.1516,-0.15,-0.1448,-0.1435,-0.1475,-0.1511,-0.1454,-0.1116,-0.1114,-0.1112,-0.111,0,0,-0.1927,-0.1889,-0.1896,-0.1816,-0.1823,-0.1742,-0.1719,-0.1679,-0.168,-0.16,-0.1573,-0.171,-0.1729,-0.1442,-0.1358,-0.1209,-0.1329,-0.1144,-0.1661,-0.1687,-0.172,-0.1803,-0.1761,0,0,0,0,0]},{"header":{"parameterUnit":"m.s-1","parameterCategory":2,"la1":30.2991,"la2":30.254,"lo1":-89.0895,"lo2":-89.0444,"dy":0.0017,"dx":0.0017,"nx":28,"ny":28,"refTime":"2025-06-22T21:00:00:Z","depth":"2","parameterNumber":3,"parameterNumberName":"V-component_of_CURRENTS"},"data":[0,0,0,0,0,0,0,0,0,0,0,0,0,0,0,0,0,0,0,0,0,0,0,0,0,0,0,0,0,0,0,0,0,0,0,0,0,0,0,0,0,0,0,0,0,0,0,0,0,0,0,0,0,0,0,0,0,0,-0.0249,-0.0249,0,-0.0177,-0.0176,-0.0175,-0.0117,-0.0117,-0.0116,-0.0116,0.0005,0.0008,0.001,0,0,0,0,0,0,0,0,0,0,0,0,0,-0.0287,-0.0287,-0.025,-0.0249,-0.0248,-0.0177,-0.0176,-0.0175,-0.0117,-0.0117,-0.0116,-0.0116,0.0004,0.0007,0.0011,0,0,0,0,0,0,0,0,0,0,0,0,0,-0.0248,-0.0287,-0.025,-0.0211,-0.0207,-0.0178,-0.0176,-0.0175,-0.0118,-0.0117,-0.0116,-0.0115,0.0003,0.0007,0.0011,0.0022,0,0,0.0024,0.0026,0,0,0,0,0,0,0,0,-0.025,-0.0246,-0.0218,-0.0214,-0.0209,-0.0157,-0.0145,-0.0107,-0.0118,-0.015,-0.0116,-0.0115,-0.0046,-0.0038,-0.0025,0.0028,0.0033,0.0024,0.0027,0.0028,0.003,0,0,0,0,0,0,0,-0.0253,-0.0249,-0.022,-0.0217,-0.0212,-0.0181,-0.0175,-0.0138,-0.0101,-0.0148,-0.0143,-0.0138,-0.0043,-0.0029,-0.0021,0.0035,0.0024,0.0028,0.003,0.0032,0.0111,0.0111,0,0,0,0,0,0,-0.0268,-0.0252,-0.0222,-0.0218,-0.023,-0.0181,-0.0174,-0.0173,-0.0103,-0.0092,-0.0138,-0.0135,-0.0036,-0.0026,-0.0017,0.0005,0.0028,0.0032,0.0035,0.0111,0.0111,0.0111,0,0,0,0,0,0,-0.0269,-0.0266,-0.0225,-0.0233,-0.0226,-0.0182,-0.0181,-0.0172,-0.0157,-0.0096,-0.0084,-0.0131,-0.0035,-0.0023,0.0011,0.001,0.0034,0.0038,0.0112,0.0111,0.0111,0.0047,0,0,0,0,0,0,-0.027,-0.0267,-0.0272,-0.0235,-0.0226,-0.0216,-0.0181,-0.0172,-0.0155,-0.015,-0.0087,-0.0075,-0.0034,0.0004,0.0015,0.0017,0.0041,0.0112,0.0112,0.0111,0.0049,0.0044,0.004,0,0,0,0,0,-0.0272,-0.0287,-0.0273,-0.0269,-0.0235,-0.0217,-0.021,-0.0174,-0.0156,-0.0156,-0.0113,-0.0076,0.0007,0.0007,0.002,0.0023,0.0113,0.0112,0.0111,0.0052,0.0045,0.004,0,0,0,0,0,0,-0.0307,-0.0281,-0.0265,-0.0272,-0.0249,-0.0208,-0.0205,-0.018,-0.0147,-0.014,-0.0081,-0.0067,-0.0038,-0.0003,-0.0004,0.0042,0.0066,0.0068,0.0017,0.0011,0.0006,-0.0001,0.0045,0,0,0,0,0,-0.0318,-0.0321,-0.029,-0.0295,-0.0286,-0.0247,-0.0234,-0.0211,-0.0177,-0.0161,-0.0118,-0.0072,-0.0033,-0.0008,0.0029,0.0055,0.0101,0.0065,0.0059,0.0055,0.0057,0.0123,0.0125,0.0108,0.0108,0.0108,0,0,-0.0333,-0.0319,-0.032,-0.0302,-0.028,-0.0278,-0.0237,-0.0226,-0.0218,-0.0153,-0.0132,-0.0089,-0.0031,-0.0003,0.0013,0.0028,0.0083,0.0054,0.005,0.0054,0.0123,0.0125,0.0126,0.0107,0.0107,0.0107,0,0,-0.0369,-0.0352,-0.0368,-0.0354,-0.0331,-0.0305,-0.0305,-0.0268,-0.0245,-0.0222,-0.0172,-0.0131,-0.0077,-0.0032,-0.0002,-0.0012,0.0051,-0.0002,-0.0026,0.0037,0.004,0.0042,0.0097,0.0105,-0.0001,-0.0001,-0.0001,0,-0.0388,-0.0402,-0.037,-0.038,-0.0374,-0.0322,-0.0336,-0.0306,-0.0262,-0.0242,-0.0225,-0.0134,-0.0088,-0.0038,-0.0042,-0.0021,0.0022,-0.0009,0.0032,0.0035,0.0039,0.0095,0.0104,-0.0004,-0.0004,-0.0003,-0.0003,0,-0.0434,-0.0443,-0.0452,-0.0447,-0.0435,-0.0438,-0.0396,-0.0377,-0.0343,-0.0305,-0.0254,-0.0188,-0.0132,-0.0111,-0.0078,-0.003,-0.0007,0.0014,0.0046,0.0037,0.0096,0.0107,-0.0009,-0.0007,-0.0006,-0.0006,0,0,-0.0483,-0.0486,-0.0488,-0.05,-0.0471,-0.0469,-0.0452,-0.042,-0.0405,-0.0347,-0.0317,-0.0244,-0.0199,-0.0163,-0.0109,-0.0049,0.001,-0.0012,-0.0007,0.004,0.0148,0.0181,0.0197,0.004,0.0042,0.0043,0.0176,0,-0.0529,-0.0573,-0.0552,-0.0583,-0.06,-0.0549,-0.0538,-0.0497,-0.0448,-0.0405,-0.0314,-0.0268,-0.0221,-0.0193,-0.0127,-0.0026,0.0038,-0.0028,0.0152,0.0157,0.0187,0.0211,0.0183,0.03,0.0187,0.0189,0.0191,0,-0.0581,-0.0604,-0.0649,-0.0655,-0.0656,-0.0659,-0.0628,-0.061,-0.0527,-0.0486,-0.0412,-0.0339,-0.0244,-0.0204,-0.0029,-0.0074,0.0029,0.0113,0.0121,0.0184,0.0211,0.0294,0.0326,0.021,0.0209,0.0207,0.0206,0,-0.064,-0.0668,-0.0709,-0.0712,-0.0708,-0.0711,-0.0699,-0.0637,-0.062,-0.0532,-0.0502,-0.0379,-0.0312,-0.0173,-0.0002,-0.0014,0.02,0.0207,0.0338,0.0341,0.037,0.0373,0.0339,0.0339,0.0339,0.0339,0.0338,0,-0.0701,-0.0732,-0.0743,-0.0768,-0.0807,-0.0774,-0.0788,-0.0752,-0.0693,-0.0669,-0.0551,-0.0493,-0.0299,-0.0154,-0.0008,0.0203,0.0199,0.0345,0.0385,0.0345,0.0345,0.0307,0.0301,0.0344,0.0343,0.0342,0.0341,0,-0.0761,-0.0768,-0.082,-0.0835,-0.0841,-0.0868,-0.0862,-0.0863,-0.0796,-0.0758,-0.0732,-0.0567,-0.0372,-0.0168,0.0076,0.0199,0.0393,0.047,0.0407,0.0437,0.049,0.0479,0.0623,0.0625,0.0628,0.0629,0.0631,0,-0.0797,-0.083,-0.088,-0.0917,-0.0929,-0.0957,-0.0973,-0.0924,-0.0916,-0.0798,-0.078,-0.0583,-0.0428,-0.0059,0.0197,0.0473,0.047,0.0598,0.0575,0.0499,0.0523,0.0509,0.0496,0.0586,0.0587,0.0588,0.0589,0,-0.0862,-0.0878,-0.0921,-0.1001,-0.1038,-0.1074,-0.1086,-0.1094,-0.1021,-0.0955,-0.0827,-0.0688,-0.0328,-0.0019,0.0336,0.049,0.0547,0.0623,0.0585,0.0511,0.0473,0.0493,0.048,0.0596,0.0595,0.0594,0.0594,0.0594,-0.0902,-0.0951,-0.1009,-0.1079,-0.1128,-0.1171,-0.1189,-0.117,-0.1131,-0.1006,-0.0873,-0.0629,-0.0333,0.0181,0.0427,0.0655,0.0649,0.0703,0.0697,0.0691,0.0655,0.0622,0.0766,0.0766,0.0766,0.0766,0.0766,0,-0.0949,-0.1002,-0.1081,-0.1159,-0.122,-0.1224,-0.1244,-0.122,-0.116,-0.1005,-0.084,-0.0499,-0.014,0.0167,0.0535,0.0749,0.0725,0.0776,0.07,0.0693,0.0686,0.0646,0.0758,0.0758,0.0759,0.0759,0,0,-0.0975,-0.1057,-0.1099,-0.1209,-0.1263,-0.1302,-0.1305,-0.1237,-0.1119,-0.0948,-0.0757,-0.0499,-0.0122,0.0131,0.0403,0.0593,0.0585,0.0609,0.0597,0.0468,0.0459,0.0629,0.0558,0,0,0,0,0]}],[{"header":{"parameterUnit":"m.s-1","parameterCategory":2,"la1":30.2991,"la2":30.254,"lo1":-89.0895,"lo2":-89.0444,"dy":0.0017,"dx":0.0017,"nx":28,"ny":28,"refTime":"2025-06-22T21:00:00:Z","depth":"4","parameterNumber":2,"parameterNumberName":"U-component_of_CURRENTS"},"data":[0,0,0,0,0,0,0,0,0,0,0,0,0,0,0,0,0,0,0,0,0,0,0,0,0,0,0,0,0,0,0,0,0,0,0,0,0,0,0,0,0,0,0,0,0,0,0,0,0,0,0,0,0,0,0,0,0,0,-0.181,-0.1811,0,-0.1897,-0.1898,-0.1898,-0.1948,-0.1949,-0.1949,-0.1949,-0.205,-0.2052,-0.2054,0,0,0,0,0,0,0,0,0,0,0,0,0,-0.1692,-0.1694,-0.181,-0.1811,-0.1812,-0.1897,-0.1898,-0.1899,-0.1948,-0.1949,-0.1949,-0.1949,-0.2049,-0.2052,-0.2054,0,0,0,0,0,0,0,0,0,0,0,0,0,-0.1756,-0.1695,-0.1809,-0.1848,-0.1853,-0.1896,-0.1898,-0.1899,-0.1948,-0.1949,-0.1949,-0.195,-0.2048,-0.2051,-0.2055,-0.2067,0,0,-0.2066,-0.2067,0,0,0,0,0,0,0,0,-0.1752,-0.176,-0.1841,-0.1846,-0.1851,-0.1914,-0.1893,-0.1956,-0.1948,-0.191,-0.1949,-0.195,-0.2006,-0.2013,-0.2026,-0.2071,-0.2076,-0.2066,-0.2068,-0.207,-0.2071,0,0,0,0,0,0,0,-0.1748,-0.1757,-0.1842,-0.1843,-0.1848,-0.1864,-0.1873,-0.1905,-0.1953,-0.1914,-0.1918,-0.193,-0.2009,-0.2022,-0.2029,-0.2077,-0.2066,-0.2069,-0.2071,-0.2073,-0.2193,-0.2194,0,0,0,0,0,0,-0.174,-0.1753,-0.184,-0.1845,-0.1804,-0.1865,-0.1876,-0.1892,-0.1953,-0.1963,-0.1929,-0.1932,-0.2016,-0.2024,-0.2032,-0.2116,-0.207,-0.2073,-0.2075,-0.2192,-0.2193,-0.2194,0,0,0,0,0,0,-0.1737,-0.1747,-0.1836,-0.1802,-0.1815,-0.1867,-0.1884,-0.1893,-0.1939,-0.1965,-0.1975,-0.197,-0.2017,-0.2027,-0.2086,-0.2118,-0.2074,-0.2078,-0.219,-0.2192,-0.2194,-0.2241,0,0,0,0,0,0,-0.1733,-0.1745,-0.1769,-0.1801,-0.1816,-0.1883,-0.1884,-0.1894,-0.1944,-0.1949,-0.2002,-0.201,-0.2018,-0.208,-0.2089,-0.2122,-0.208,-0.2189,-0.2191,-0.2193,-0.2238,-0.2244,-0.2249,0,0,0,0,0,-0.1729,-0.1755,-0.177,-0.1781,-0.1842,-0.1885,-0.1894,-0.1931,-0.1946,-0.1973,-0.2006,-0.201,-0.2099,-0.2085,-0.2095,-0.2129,-0.2188,-0.2191,-0.2193,-0.2236,-0.2243,-0.2249,0,0,0,0,0,0,-0.172,-0.1764,-0.1781,-0.1821,-0.186,-0.1894,-0.1927,-0.195,-0.1998,-0.2012,-0.2031,-0.2042,-0.2103,-0.2108,-0.2092,-0.2167,-0.2142,-0.2146,-0.2171,-0.2178,-0.2183,-0.2178,-0.2083,0,0,0,0,0,-0.1727,-0.176,-0.18,-0.1836,-0.1858,-0.1898,-0.1926,-0.1953,-0.1992,-0.2016,-0.2052,-0.2085,-0.2115,-0.2142,-0.2169,-0.2218,-0.2201,-0.2243,-0.2248,-0.2253,-0.2255,-0.2256,-0.2262,-0.2202,-0.2202,-0.2202,0,0,-0.1734,-0.1763,-0.1783,-0.1837,-0.187,-0.1911,-0.1917,-0.1971,-0.2011,-0.2018,-0.2093,-0.2113,-0.2132,-0.2183,-0.221,-0.2197,-0.226,-0.2256,-0.226,-0.2259,-0.2259,-0.2265,-0.227,-0.2204,-0.2203,-0.2203,0,0,-0.1753,-0.1791,-0.1822,-0.1859,-0.1917,-0.1942,-0.1965,-0.202,-0.2054,-0.2119,-0.2129,-0.2167,-0.2228,-0.2239,-0.2251,-0.2305,-0.2289,-0.232,-0.2349,-0.2351,-0.2355,-0.2359,-0.2336,-0.2338,-0.2322,-0.2322,-0.2322,0,-0.1762,-0.1805,-0.1839,-0.1879,-0.1916,-0.1959,-0.2003,-0.2043,-0.2113,-0.2141,-0.2152,-0.2231,-0.2249,-0.2293,-0.2309,-0.2318,-0.2309,-0.2323,-0.2357,-0.2361,-0.2364,-0.234,-0.2341,-0.2325,-0.2324,-0.2324,-0.2324,0,-0.1794,-0.1844,-0.1868,-0.1931,-0.1974,-0.2021,-0.2075,-0.2128,-0.2174,-0.2206,-0.2275,-0.2298,-0.2338,-0.2351,-0.235,-0.2387,-0.2369,-0.2364,-0.2339,-0.2373,-0.2345,-0.2345,-0.2328,-0.2328,-0.2327,-0.2326,0,0,-0.1771,-0.1871,-0.1883,-0.1922,-0.2008,-0.2041,-0.2116,-0.2182,-0.2226,-0.2292,-0.2339,-0.2391,-0.2402,-0.2415,-0.242,-0.2425,-0.2435,-0.241,-0.2409,-0.2384,-0.2426,-0.2271,-0.2256,-0.2441,-0.2442,-0.2442,-0.2393,0,-0.1789,-0.1865,-0.1915,-0.1994,-0.2036,-0.2103,-0.2163,-0.223,-0.2285,-0.2342,-0.2375,-0.2422,-0.2427,-0.2446,-0.2456,-0.2442,-0.244,-0.2448,-0.24,-0.2398,-0.2253,-0.2253,-0.2444,-0.2393,-0.2393,-0.2393,-0.2393,0,-0.1794,-0.1849,-0.1928,-0.2024,-0.2049,-0.2107,-0.2201,-0.226,-0.2342,-0.2383,-0.2436,-0.246,-0.2491,-0.2482,-0.2482,-0.249,-0.2464,-0.2447,-0.2444,-0.2282,-0.2243,-0.2354,-0.2393,-0.2393,-0.2393,-0.2393,-0.2393,0,-0.1741,-0.1851,-0.1915,-0.1951,-0.2067,-0.212,-0.2184,-0.2275,-0.2322,-0.2407,-0.2439,-0.2487,-0.2506,-0.2499,-0.2473,-0.2483,-0.245,-0.2451,-0.2287,-0.2275,-0.2411,-0.2407,-0.2442,-0.2442,-0.2442,-0.2442,-0.2442,0,-0.1718,-0.1772,-0.1902,-0.1936,-0.2009,-0.2101,-0.2178,-0.2246,-0.2335,-0.237,-0.2453,-0.2469,-0.2514,-0.2504,-0.2476,-0.2367,-0.245,-0.228,-0.225,-0.243,-0.243,-0.241,-0.2407,-0.244,-0.2441,-0.2441,-0.2441,0,-0.1641,-0.1733,-0.1808,-0.1942,-0.1986,-0.2037,-0.2165,-0.2204,-0.2308,-0.2354,-0.238,-0.2458,-0.2436,-0.2448,-0.2421,-0.2344,-0.2272,-0.2215,-0.2392,-0.2375,-0.2097,-0.2097,-0.2016,-0.201,-0.2005,-0.2001,-0.1998,0,-0.1604,-0.1639,-0.1788,-0.1829,-0.1895,-0.1988,-0.204,-0.217,-0.2204,-0.2319,-0.2314,-0.2351,-0.2377,-0.2201,-0.2244,-0.2161,-0.2142,-0.2089,-0.2105,-0.2072,-0.2052,-0.2061,-0.2068,-0.199,-0.1988,-0.1987,-0.1986,0,-0.1521,-0.1591,-0.1651,-0.1735,-0.1806,-0.187,-0.1956,-0.1965,-0.2092,-0.2212,-0.2174,-0.2149,-0.212,-0.2086,-0.2032,-0.1984,-0.2114,-0.2036,-0.2047,-0.2061,-0.2039,-0.2026,-0.2039,-0.1968,-0.1971,-0.1972,-0.1973,0,-0.1454,-0.1472,-0.1557,-0.1611,-0.1693,-0.1709,-0.1781,-0.181,-0.1859,-0.1992,-0.1973,-0.2015,-0.2094,-0.1992,-0.1947,-0.1879,-0.1855,-0.1791,-0.1814,-0.1834,-0.1796,-0.1743,-0.1541,0,0,0,0,0,-0.1374,-0.1376,-0.142,-0.1473,-0.1546,-0.1588,-0.1697,-0.177,-0.1898,-0.1815,-0.1887,-0.185,-0.1786,-0.1816,-0.1703,-0.1864,-0.1863,-0.1727,-0.1803,-0.1872,-0.1892,-0.1865,0,0,0,0,0,0,-0.132,-0.1358,-0.1369,-0.1335,-0.134,-0.1401,-0.1458,-0.1554,-0.152,-0.1655,-0.1625,-0.1729,-0.1691,-0.181,-0.1661,-0.1667,-0.1674,-0.1767,-0.1762,-0.186,-0.1878,-0.1895,-0.1874,0,0,0,0,0]},{"header":{"parameterUnit":"m.s-1","parameterCategory":2,"la1":30.2991,"la2":30.254,"lo1":-89.0895,"lo2":-89.0444,"dy":0.0017,"dx":0.0017,"nx":28,"ny":28,"refTime":"2025-06-22T21:00:00:Z","depth":"4","parameterNumber":3,"parameterNumberName":"V-component_of_CURRENTS"},"data":[0,0,0,0,0,0,0,0,0,0,0,0,0,0,0,0,0,0,0,0,0,0,0,0,0,0,0,0,0,0,0,0,0,0,0,0,0,0,0,0,0,0,0,0,0,0,0,0,0,0,0,0,0,0,0,0,0,0,-0.0199,-0.0198,0,-0.0149,-0.0148,-0.0148,-0.0107,-0.0107,-0.0107,-0.0106,-0.0012,-0.0009,-0.0007,0,0,0,0,0,0,0,0,0,0,0,0,0,-0.0217,-0.0217,-0.0199,-0.0198,-0.0198,-0.0149,-0.0148,-0.0148,-0.0107,-0.0107,-0.0106,-0.0106,-0.0012,-0.001,-0.0007,0,0,0,0,0,0,0,0,0,0,0,0,0,-0.0192,-0.0217,-0.0199,-0.0173,-0.017,-0.0149,-0.0148,-0.0147,-0.0107,-0.0107,-0.0106,-0.0106,-0.0013,-0.001,-0.0007,0.0005,0,0,0.0004,0.0005,0,0,0,0,0,0,0,0,-0.0193,-0.0191,-0.0177,-0.0174,-0.0171,-0.0135,-0.012,-0.0095,-0.0107,-0.013,-0.0106,-0.0106,-0.005,-0.0044,-0.0034,0.0009,0.0013,0.0004,0.0006,0.0007,0.0008,0,0,0,0,0,0,0,-0.0195,-0.0192,-0.0178,-0.0177,-0.0173,-0.0149,-0.0145,-0.0115,-0.0091,-0.0128,-0.0125,-0.0122,-0.0048,-0.0037,-0.0031,0.0015,0.0004,0.0007,0.0009,0.001,0.0075,0.0075,0,0,0,0,0,0,-0.0206,-0.0194,-0.0179,-0.0176,-0.0183,-0.015,-0.0145,-0.0146,-0.0092,-0.0084,-0.0122,-0.012,-0.0043,-0.0035,-0.0028,-0.0009,0.0007,0.001,0.0012,0.0075,0.0075,0.0074,0,0,0,0,0,0,-0.0207,-0.0206,-0.0181,-0.0185,-0.018,-0.015,-0.0151,-0.0145,-0.0135,-0.0089,-0.008,-0.0119,-0.0043,-0.0033,-0.0007,-0.0005,0.0012,0.0015,0.0075,0.0075,0.0075,0.0027,0,0,0,0,0,0,-0.0208,-0.0206,-0.0213,-0.0186,-0.0181,-0.0177,-0.0152,-0.0145,-0.0135,-0.0131,-0.0083,-0.0073,-0.0042,-0.0012,-0.0003,-0.0,0.0018,0.0076,0.0075,0.0075,0.0029,0.0025,0.0021,0,0,0,0,0,-0.0209,-0.0221,-0.0213,-0.0211,-0.019,-0.0177,-0.0172,-0.0148,-0.0135,-0.0136,-0.0104,-0.0075,-0.0009,-0.001,0.0001,0.0005,0.0076,0.0075,0.0075,0.003,0.0026,0.0021,0,0,0,0,0,0,-0.0233,-0.0218,-0.0208,-0.0215,-0.0201,-0.0171,-0.0171,-0.0153,-0.0129,-0.0124,-0.0079,-0.0067,-0.0045,-0.0016,-0.0018,0.0021,0.0038,0.004,0.0001,-0.0003,-0.0007,-0.0013,0.002,0,0,0,0,0,-0.0242,-0.0247,-0.0226,-0.0233,-0.0228,-0.02,-0.0192,-0.0176,-0.0151,-0.014,-0.0107,-0.0071,-0.0039,-0.002,0.0009,0.0031,0.0069,0.004,0.0036,0.0033,0.0035,0.0094,0.0096,0.0072,0.0072,0.0072,0,0,-0.0253,-0.0246,-0.0249,-0.0238,-0.0224,-0.0223,-0.0194,-0.0187,-0.0182,-0.0133,-0.0117,-0.0084,-0.0038,-0.0015,-0.0002,0.001,0.0057,0.0032,0.0029,0.0033,0.0093,0.0096,0.0098,0.0072,0.0072,0.0072,0,0,-0.028,-0.0272,-0.0285,-0.0276,-0.0262,-0.0244,-0.0245,-0.0219,-0.0204,-0.0187,-0.0149,-0.0115,-0.0074,-0.0036,-0.0011,-0.0017,0.0033,-0.0011,-0.0028,0.0029,0.0032,0.0035,0.0077,0.0084,-0.0009,-0.0009,-0.0009,0,-0.0295,-0.0307,-0.0286,-0.0295,-0.0292,-0.0257,-0.0268,-0.0247,-0.0215,-0.0201,-0.019,-0.0118,-0.0081,-0.0037,-0.004,-0.0024,0.0011,-0.0015,0.0025,0.0029,0.0033,0.0076,0.0084,-0.0011,-0.0011,-0.0011,-0.001,0,-0.0326,-0.0337,-0.0344,-0.0343,-0.0336,-0.0341,-0.0311,-0.03,-0.0277,-0.0249,-0.0209,-0.0156,-0.0113,-0.0094,-0.0068,-0.0024,-0.0008,0.0011,0.0037,0.0032,0.0077,0.0087,-0.0015,-0.0014,-0.0013,-0.0012,0,0,-0.0359,-0.0367,-0.037,-0.0381,-0.0363,-0.0364,-0.0353,-0.0331,-0.0322,-0.0278,-0.0256,-0.0195,-0.0162,-0.0132,-0.0089,-0.0035,0.0018,-0.0006,-0.0002,0.0035,0.0136,0.0115,0.0124,0.0046,0.0047,0.0048,0.0153,0,-0.0391,-0.0426,-0.0414,-0.0441,-0.0455,-0.0422,-0.0417,-0.0389,-0.0354,-0.0323,-0.025,-0.0215,-0.0177,-0.0156,-0.0097,-0.0014,0.0043,-0.0013,0.0135,0.0139,0.0121,0.0134,0.0053,0.0161,0.0163,0.0165,0.0166,0,-0.0425,-0.0445,-0.0483,-0.0495,-0.0498,-0.0506,-0.049,-0.0479,-0.0418,-0.0388,-0.033,-0.0273,-0.0194,-0.016,-0.0012,-0.0051,0.0036,0.0108,0.0114,0.0119,0.0136,0.0169,0.0184,0.0183,0.0181,0.018,0.0179,0,-0.0462,-0.0491,-0.0527,-0.0531,-0.0537,-0.0546,-0.0544,-0.0502,-0.0493,-0.0427,-0.0407,-0.0305,-0.0253,-0.0132,0.0005,-0.0,0.0174,0.0186,0.0255,0.0255,0.0263,0.026,0.0303,0.0303,0.0303,0.0303,0.0302,0,-0.0497,-0.0527,-0.0553,-0.0574,-0.0615,-0.0596,-0.0619,-0.0595,-0.0556,-0.0542,-0.0449,-0.0406,-0.0241,-0.0124,-0.0001,0.015,0.0172,0.0257,0.0284,0.0238,0.0231,0.027,0.0265,0.0307,0.0306,0.0305,0.0304,0,-0.0529,-0.0546,-0.0595,-0.0624,-0.0638,-0.0667,-0.0684,-0.069,-0.0646,-0.0621,-0.0602,-0.0472,-0.032,-0.0154,0.0053,0.0135,0.0286,0.0341,0.0271,0.0293,0.033,0.0321,0.042,0.042,0.042,0.042,0.042,0,-0.0547,-0.0577,-0.0642,-0.0682,-0.0702,-0.0741,-0.0765,-0.0741,-0.0737,-0.0658,-0.0642,-0.0496,-0.0393,-0.0118,0.005,0.0283,0.0319,0.0383,0.0365,0.0327,0.0345,0.0335,0.0326,0.0421,0.0421,0.0421,0.0421,0,-0.0581,-0.061,-0.0652,-0.0737,-0.0785,-0.0827,-0.0852,-0.0856,-0.081,-0.0777,-0.0656,-0.0506,-0.033,-0.0118,0.0066,0.0232,0.0328,0.0386,0.0387,0.037,0.033,0.0344,0.0335,0.0421,0.0421,0.0421,0.0421,0,-0.0604,-0.0646,-0.071,-0.0778,-0.0846,-0.0886,-0.0897,-0.087,-0.0851,-0.0751,-0.0712,-0.0511,-0.0386,-0.0143,0.0023,0.0182,0.022,0.0256,0.0264,0.0265,0.0183,0.0107,0.0159,0,0,0,0,0,-0.0619,-0.0669,-0.0744,-0.0817,-0.0885,-0.0916,-0.0939,-0.0932,-0.0891,-0.0811,-0.0754,-0.0583,-0.0317,-0.0195,-0.0037,0.001,0.0228,0.0196,0.0269,0.0425,0.0424,0.0352,0,0,0,0,0,0,-0.0632,-0.0705,-0.0743,-0.0829,-0.0883,-0.0943,-0.0958,-0.0932,-0.0871,-0.0808,-0.0656,-0.0565,-0.0299,-0.0402,-0.0038,0.001,0.0071,0.0329,0.0332,0.0426,0.0425,0.0424,0.035,0,0,0,0,0]}]]